Wind_Speed
8 7 7 7 6 5 5 5 6 7 7 7 6 6 6 6 7 8 8 8 8 9 8 9 9 9 9 10 10 10 10 11 11 12 12 12 11 10 10 9 8 8 7
7 7 6 5 5 4 4 4 4 5 6 6 5 5 5 5 6 6 7 7 8 8 9 9 10 10 9 10 11 12 12 12 13 13 14 14 14 14 13 12 11 10 10
7 6 5 4 3 3 3 3 4 4 4 4 4 5 5 5 5 6 6 7 8 9 9 9 10 10 10 10 11 12 13 14 14 14 14 15 16 16 16 15 15 14 13
6 5 4 3 3 2 2 2 2 2 3 4 4 4 4 5 4 5 6 7 8 8 8 9 10 10 11 11 11 12 13 13 14 15 15 16 17 17 18 17 17 17 16
5 5 5 4 3 3 2 1 1 1 2 3 3 3 3 3 4 5 5 6 7 8 8 8 9 10 10 11 12 13 13 14 14 15 16 17 18 19 19 19 19 19 19
6 6 5 4 3 3 2 0 0 1 1 2 2 2 3 3 4 4 5 5 6 7 8 9 9 10 10 11 11 12 14 15 15 16 16 17 18 19 20 21 21 22 22
7 6 5 4 4 3 2 1 1 1 1 2 2 2 3 3 4 4 5 5 6 6 7 8 9 10 10 11 11 12 13 14 15 16 17 18 19 19 20 22 22 23 23
7 6 5 5 5 4 2 2 1 1 2 2 3 3 3 3 4 5 5 5 6 6 6 7 8 9 9 11 12 12 14 14 15 16 16 17 19 20 20 22 23 23 24
8 7 6 5 5 4 3 1 1 1 2 2 3 3 3 4 4 5 5 5 6 6 6 7 7 8 9 10 11 12 13 14 15 16 16 17 18 20 21 21 22 24 25
9 8 6 5 5 4 3 1 0 1 2 3 3 4 4 4 5 5 6 6 7 7 7 7 8 9 10 11 12 13 13 14 15 16 17 17 18 19 21 22 22 24 26
10 8 6 6 5 4 3 2 1 2 3 3 4 4 4 5 5 6 6 7 7 7 8 8 9 10 11 11 12 13 14 14 15 16 17 18 19 19 20 22 23 25 26
10 8 7 7 6 5 3 2 2 3 3 4 5 5 5 6 6 7 7 7 8 9 9 10 10 11 12 13 13 14 14 15 16 17 18 19 19 20 20 21 23 24 25
10 9 8 8 7 6 5 4 5 5 5 5 6 7 7 8 8 8 9 9 9 10 11 11 12 13 13 14 14 15 16 16 16 17 18 19 20 21 22 22 23 24 25
11 10 10 9 8 8 7 7 7 7 7 8 9 9 9 10 10 10 10 11 11 12 12 13 13 14 14 15 16 16 17 17 17 18 19 20 21 22 23 24 25 25 26
12 12 11 11 10 10 10 10 10 10 10 11 11 12 12 12 12 12 12 13 13 13 14 15 15 16 16 17 17 17 18 18 19 19 19 20 21 22 23 24 25 26 27
13 13 12 12 12 12 13 13 13 13 14 14 14 15 15 15 15 15 15 16 15 16 16 17 17 18 19 19 19 19 19 20 20 20 20 21 22 22 23 25 26 27 28
14 14 14 14 14 15 15 15 16 16 16 16 17 17 17 18 18 18 18 18 18 18 18 19 19 20 21 21 21 21 22 22 22 22 23 23 23 24 25 25 26 27 29
16 16 16 16 17 17 17 18 19 19 19 19 19 20 20 21 21 21 21 21 21 21 21 22 22 22 23 23 23 23 24 24 24 24 24 25 25 25 26 27 27 28 29
17 18 18 19 19 20 20 21 21 22 22 22 22 23 23 23 23 23 24 24 24 24 24 25 25 25 25 25 25 25 26 26 26 26 26 27 27 27 28 28 29 29 30
19 19 20 21 22 23 23 24 24 25 25 25 25 25 26 25 25 26 26 26 26 27 27 27 28 28 28 28 28 28 28 28 29 29 29 29 29 29 29 30 31 31 32
22 22 23 24 25 26 26 26 27 27 27 28 28 28 28 28 28 28 28 28 29 29 30 30 30 30 31 31 30 30 30 30 31 31 31 31 31 31 32 32 32 33 33
24 25 26 27 28 28 28 30 30 31 31 31 31 31 31 31 32 31 31 31 31 32 32 33 33 33 33 33 33 33 33 33 32 34 34 33 34 33 34 34 34 34 35
26 26 27 28 29 29 30 31 33 34 34 33 33 34 33 33 34 33 34 34 34 35 36 36 35 35 35 36 36 36 36 36 36 37 36 35 36 36 36 36 36 37 37
28 29 29 29 31 31 32 33 34 35 36 35 35 36 36 35 35 36 36 36 37 37 37 38 37 37 38 39 40 40 40 40 39 40 40 38 38 38 38 39 39 39 39
29 29 30 30 31 32 33 34 35 36 37 37 37 37 37 37 37 37 38 38 38 38 40 40 40 40 41 41 42 43 43 43 42 42 43 42 41 41 41 41 41 41 41
30 31 32 33 33 33 34 35 36 36 37 37 38 38 38 39 39 40 40 40 41 41 42 42 42 43 44 45 46 46 47 47 46 44 45 46 45 45 43 43 43 44 43
Wind_Direction
264 265 273 278 280 279 280 289 285 289 291 289 284 281 276 269 267 262 259 259 261 263 264 258 258 257 255 254 251 252 251 252 250 246 245 243 241 242 242 240 240 242 243
249 261 268 273 276 272 279 292 295 297 299 292 291 286 279 270 267 269 267 267 266 267 267 265 259 258 259 258 257 253 253 254 254 250 247 244 243 242 243 243 243 244 246
241 249 254 255 259 261 275 293 302 303 306 297 289 281 280 276 273 276 275 271 269 270 268 266 262 261 263 261 259 256 255 256 256 253 250 247 245 244 244 245 245 245 246
228 231 227 227 233 244 269 286 302 321 324 318 304 286 286 285 280 286 287 282 275 274 272 266 265 266 265 263 260 259 259 258 257 253 252 250 248 247 246 246 246 246 246
213 208 199 207 224 221 226 257 285 333 335 334 325 311 304 296 297 298 295 291 283 278 276 275 271 269 270 268 264 262 261 261 259 258 255 253 253 251 248 248 248 247 246
205 197 198 206 210 201 197 240 67 357 347 359 351 332 324 320 314 308 305 299 290 286 282 280 278 275 274 273 270 266 265 264 263 261 259 257 255 254 251 249 249 248 248
191 187 197 193 183 178 170 144 78 49 27 19 7 357 346 334 329 325 317 308 299 292 288 286 283 279 276 274 272 270 269 267 264 261 261 260 257 256 253 250 249 248 248
187 189 185 173 172 174 159 125 95 42 25 7 2 354 346 338 336 335 328 320 314 307 299 294 292 285 282 277 273 272 271 270 266 264 263 262 260 257 256 252 250 249 249
188 184 175 176 179 181 172 146 99 31 9 359 352 349 343 338 340 340 333 325 320 316 309 304 300 295 290 286 281 278 276 274 271 268 266 264 263 259 257 255 252 251 251
188 184 182 183 184 181 178 182 153 10 359 353 349 348 343 337 336 333 329 323 321 318 314 310 303 299 295 291 287 285 280 275 273 270 269 267 264 262 258 255 253 254 252
193 193 192 189 189 190 194 204 274 331 343 344 342 340 339 332 327 326 324 323 322 321 316 312 308 304 300 296 292 289 286 281 276 273 271 270 266 264 260 257 255 255 254
197 203 209 198 197 203 215 243 281 304 319 326 328 327 322 320 317 317 318 318 317 316 315 312 309 306 303 300 298 295 290 286 281 276 272 270 269 265 262 259 257 256 254
206 212 216 211 214 223 237 259 277 290 302 309 313 314 313 312 310 310 311 312 312 312 311 311 308 304 303 302 300 298 294 291 287 281 277 273 270 267 264 262 259 257 256
217 222 225 225 231 240 251 263 273 281 290 297 301 304 304 304 303 302 303 305 307 307 307 306 304 303 301 300 299 298 295 293 290 285 281 277 273 269 266 263 261 259 258
224 229 231 238 244 250 258 266 271 276 283 288 291 294 295 297 296 295 296 298 299 300 301 301 300 299 298 297 297 297 295 292 290 287 283 279 275 272 268 265 263 261 258
230 237 241 247 253 258 263 267 271 275 280 286 288 289 290 291 291 291 291 292 294 295 296 297 297 296 295 295 295 294 293 292 291 289 286 282 278 275 272 268 265 263 261
237 243 250 255 259 262 265 269 273 276 280 283 285 285 286 287 288 288 289 290 291 292 293 293 293 293 292 292 292 291 291 290 289 288 287 284 281 278 275 273 269 266 263
243 250 256 260 263 267 269 271 273 276 279 281 283 283 284 286 286 286 287 288 289 290 291 292 292 292 291 290 290 290 289 288 287 287 286 285 283 280 277 275 272 269 265
250 255 260 264 268 271 273 274 274 275 277 280 282 283 283 284 285 285 286 286 286 287 288 289 290 289 289 288 287 288 288 286 285 285 285 285 284 282 279 276 274 272 268
255 260 264 267 270 274 275 274 276 277 278 279 280 281 281 282 283 284 284 284 284 285 286 287 287 286 286 286 285 285 285 285 285 285 284 283 283 282 280 278 276 274 272
259 262 266 268 270 274 274 274 276 277 278 279 279 280 280 280 281 282 283 283 284 285 286 286 286 285 285 284 283 283 283 283 283 283 283 283 283 282 281 279 277 275 273
264 266 270 271 272 274 274 275 274 275 276 277 278 278 278 278 279 280 282 283 283 285 286 286 285 283 283 283 282 282 282 282 282 281 281 282 282 281 280 279 278 277 275
270 273 275 274 274 275 276 277 275 274 275 277 277 278 278 278 279 279 281 282 283 284 285 285 284 282 281 282 282 281 281 281 280 280 280 280 280 280 280 279 278 277 275
271 272 274 276 275 275 278 278 277 276 278 278 278 278 277 276 276 278 280 282 284 284 284 284 283 282 281 281 281 281 281 280 280 280 279 278 278 278 278 278 277 276 276
272 275 276 275 277 278 280 279 277 278 278 278 278 278 277 275 276 277 279 281 283 282 282 282 282 281 281 281 281 281 280 280 280 279 279 279 278 276 276 276 276 276 276
277 276 277 277 277 279 279 278 278 279 279 278 277 277 276 276 277 278 280 281 281 281 281 280 281 281 281 281 280 280 280 279 279 278 278 278 277 276 275 275 275 275 275
Height
5892 5892 5892 5891 5891 5891 5890 5890 5889 5888 5888 5888 5887 5887 5888 5888 5888 5888 5889 5889 5889 5890 5890 5890 5891 5891 5892 5892 5893 5894 5894 5895 5896 5897 5898 5899 5900 5901 5902 5903 5904 5905 5905
5890 5891 5890 5890 5890 5890 5889 5889 5888 5888 5887 5886 5886 5886 5886 5886 5887 5887 5887 5887 5887 5888 5888 5888 5888 5889 5889 5890 5890 5891 5892 5893 5893 5894 5895 5896 5897 5899 5900 5901 5902 5903 5904
5889 5889 5889 5889 5889 5889 5888 5888 5887 5887 5886 5886 5885 5885 5885 5885 5885 5885 5885 5886 5886 5886 5886 5886 5886 5886 5887 5887 5888 5888 5889 5890 5890 5891 5892 5893 5894 5896 5897 5898 5899 5901 5902
5887 5887 5888 5888 5888 5888 5888 5887 5887 5886 5885 5885 5884 5884 5884 5884 5884 5884 5884 5884 5884 5884 5884 5884 5884 5884 5884 5884 5885 5885 5886 5886 5887 5888 5889 5890 5891 5892 5893 5895 5896 5898 5899
5885 5886 5887 5887 5887 5887 5887 5886 5886 5885 5885 5884 5884 5884 5883 5883 5883 5883 5882 5882 5882 5882 5882 5882 5882 5882 5882 5882 5882 5882 5883 5883 5884 5884 5885 5886 5887 5888 5890 5891 5892 5894 5895
5884 5885 5886 5886 5886 5886 5886 5886 5885 5885 5885 5884 5884 5883 5883 5882 5882 5882 5881 5881 5881 5880 5880 5880 5880 5879 5879 5879 5879 5879 5880 5880 5880 5881 5881 5882 5883 5884 5885 5887 5888 5889 5891
5883 5884 5885 5885 5885 5885 5885 5885 5885 5885 5884 5884 5884 5883 5882 5882 5881 5881 5880 5880 5879 5879 5878 5878 5877 5877 5876 5876 5876 5876 5876 5876 5877 5877 5877 5878 5879 5879 5880 5882 5883 5885 5886
5882 5883 5884 5884 5884 5885 5885 5885 5884 5884 5884 5883 5883 5882 5882 5882 5881 5880 5879 5879 5878 5877 5877 5876 5875 5874 5874 5874 5873 5873 5873 5873 5873 5873 5873 5873 5874 5875 5876 5877 5878 5879 5881
5880 5882 5882 5883 5884 5884 5884 5884 5884 5883 5883 5883 5882 5882 5881 5881 5880 5879 5878 5877 5877 5876 5875 5874 5873 5872 5871 5871 5870 5870 5870 5869 5869 5869 5869 5869 5869 5870 5871 5872 5873 5874 5876
5879 5880 5881 5881 5882 5883 5883 5883 5883 5882 5882 5882 5881 5880 5880 5879 5879 5878 5877 5876 5875 5874 5873 5872 5870 5869 5869 5868 5867 5866 5866 5866 5865 5865 5865 5865 5865 5865 5866 5867 5867 5868 5870
5877 5878 5879 5880 5880 5881 5882 5882 5882 5881 5881 5880 5880 5879 5878 5878 5877 5876 5875 5874 5873 5872 5871 5869 5868 5867 5866 5865 5864 5863 5862 5861 5861 5861 5860 5860 5860 5860 5860 5861 5862 5862 5863
5875 5876 5877 5878 5879 5880 5880 5880 5880 5880 5879 5878 5878 5877 5877 5876 5875 5874 5873 5872 5871 5870 5868 5867 5865 5864 5863 5861 5860 5859 5858 5857 5856 5856 5855 5855 5855 5854 5855 5855 5855 5856 5857
5873 5875 5875 5876 5877 5878 5878 5878 5878 5877 5877 5876 5875 5875 5874 5873 5872 5872 5871 5869 5868 5867 5865 5864 5862 5861 5859 5858 5857 5855 5854 5853 5852 5851 5850 5850 5849 5849 5849 5849 5849 5850 5851
5871 5872 5873 5874 5874 5875 5875 5875 5875 5874 5874 5873 5872 5872 5871 5870 5869 5868 5867 5866 5865 5863 5862 5860 5859 5857 5856 5854 5853 5851 5850 5848 5847 5846 5845 5844 5844 5843 5843 5843 5843 5843 5844
5868 5869 5870 5871 5871 5871 5871 5871 5871 5871 5870 5869 5869 5868 5867 5866 5865 5864 5863 5862 5861 5859 5858 5856 5854 5853 5851 5850 5848 5847 5845 5843 5842 5840 5839 5838 5838 5837 5836 5836 5836 5836 5837
5865 5866 5866 5867 5867 5868 5867 5867 5867 5866 5866 5865 5864 5864 5863 5862 5860 5859 5858 5857 5856 5854 5853 5851 5850 5848 5846 5844 5843 5841 5840 5838 5836 5835 5833 5832 5831 5830 5830 5829 5829 5829 5829
5861 5862 5863 5863 5863 5863 5863 5863 5862 5862 5861 5860 5859 5858 5857 5856 5855 5854 5852 5851 5850 5848 5847 5846 5844 5842 5841 5839 5837 5835 5833 5832 5830 5829 5827 5826 5824 5823 5823 5822 5821 5821 5821
5857 5858 5858 5858 5858 5858 5858 5857 5857 5856 5856 5855 5854 5853 5852 5850 5849 5848 5846 5845 5844 5842 5841 5839 5838 5836 5834 5832 5830 5829 5827 5825 5823 5822 5820 5819 5817 5816 5815 5814 5813 5812 5812
5852 5853 5853 5853 5853 5853 5852 5852 5851 5850 5849 5849 5848 5847 5845 5844 5843 5841 5840 5838 5837 5835 5834 5832 5830 5828 5827 5825 5823 5821 5820 5818 5816 5814 5813 5811 5809 5808 5806 5805 5804 5803 5803
5847 5847 5847 5847 5846 5846 5845 5845 5844 5844 5843 5842 5841 5840 5838 5837 5835 5834 5832 5831 5829 5828 5826 5825 5823 5821 5819 5817 5815 5813 5812 5810 5808 5806 5804 5802 5801 5799 5798 5796 5795 5794 5794
5841 5840 5840 5839 5839 5838 5838 5837 5837 5836 5835 5834 5833 5832 5830 5829 5827 5826 5824 5823 5821 5819 5818 5816 5814 5812 5810 5808 5806 5805 5803 5801 5799 5797 5795 5794 5792 5790 5788 5787 5786 5784 5784
5833 5832 5832 5832 5831 5830 5830 5829 5827 5827 5826 5825 5824 5823 5821 5820 5819 5817 5816 5814 5812 5810 5808 5806 5804 5803 5801 5799 5797 5795 5793 5791 5790 5788 5786 5784 5782 5780 5778 5777 5775 5774 5773
5826 5825 5824 5824 5823 5822 5821 5820 5818 5817 5816 5815 5814 5813 5812 5811 5809 5808 5806 5805 5803 5800 5798 5796 5794 5792 5790 5788 5786 5784 5782 5780 5779 5776 5775 5773 5771 5770 5768 5766 5765 5763 5762
5818 5817 5816 5815 5814 5813 5812 5811 5809 5807 5806 5806 5805 5803 5802 5801 5799 5798 5796 5794 5792 5790 5787 5784 5783 5781 5779 5776 5774 5772 5770 5768 5767 5764 5762 5761 5759 5758 5756 5754 5753 5751 5750
5809 5808 5807 5806 5805 5804 5802 5800 5799 5798 5796 5795 5794 5793 5791 5790 5788 5786 5785 5783 5781 5778 5775 5773 5771 5768 5766 5764 5761 5759 5757 5755 5754 5752 5749 5747 5747 5745 5744 5742 5740 5738 5737
5799 5798 5797 5796 5795 5793 5792 5790 5789 5787 5786 5785 5783 5782 5780 5779 5777 5775 5773 5771 5768 5766 5763 5760 5758 5755 5753 5750 5747 5744 5742 5740 5739 5739 5736 5733 5732 5730 5730 5729 5727 5725 5724